Regional Weather Roundup
Issued by NWS Sioux Falls, SD

Home | Current Version | Previous Version | Text Only | Print | Product List | Glossary On
Versions: 1 2 3 4 5 6 7 8 9 10 11 12 13 14 15 16 17 18 19 20 21 22 23 24 25 26 27 28 29 30 31 32 33 34 35 36 37 38 39 40 41 42 43 44 45 46 47 48 49 50
000
ASUS43 KFSD 271802
RWRFSD

WEATHER ROUNDUP FOR SE SOUTH DAKOTA/SW MINNESOTA/NW IOWA
NATIONAL WEATHER SERVICE SIOUX FALLS SD
100 PM CDT FRI MAR 27 2015

NOTE: "FAIR" INDICATES FEW OR NO CLOUDS BELOW 12,000 FEET WITH NO
SIGNIFICANT WEATHER AND OR OBSTRUCTIONS TO VISIBILITY.


SDZ038>040-050-052>070-271900-
SOUTHEAST SOUTH DAKOTA

CITY           SKY/WX    TMP DP  RH WIND       PRES   REMARKS
CHAMBERLAIN    NOT AVBL
HURON          CLOUDY    33  13  43 S13       30.14F WCI  24
6HR MIN TEMP:  14; 6HR MAX TEMP:  33;

MADISON        FAIR      32   9  37 S7        30.16F WCI  26
MITCHELL       CLOUDY    34  16  47 S10       30.17F WCI  26
SIOUX FALLS    CLOUDY    32   8  36 SW7       30.19F WCI  26
6HR MIN TEMP:  12; 6HR MAX TEMP:  32;

WINNER         CLOUDY    39  30  70 S17       30.06F
YANKTON        PTSUNNY   34  14  44 SE7       30.21F WCI  28
$$

MNZ071-072-080-081-089-090-097-098-271900-
SOUTHWEST MINNESOTA

CITY           SKY/WX    TMP DP  RH WIND       PRES   REMARKS
FAIRMONT       MOSUNNY   34   9  35 W5        30.22F WCI  30
JACKSON        SUNNY     32   3  29 CALM      30.21F
LUVERNE        PTSUNNY   34   9  35 SW7       30.20F WCI  28
MARSHALL       PTSUNNY   34   7  32 S10       30.20F WCI  26
6HR MIN TEMP:  12; 6HR MAX TEMP:  34;

MONTEVIDEO     MOSUNNY   34  14  44 W5        30.22F WCI  30
PIPESTONE      PTSUNNY   30   3  31 SW6       30.16F WCI  24
REDWOOD FALLS  SUNNY     30  10  43 CALM      30.23F
TRACY          MOSUNNY   32   9  37 CALM      30.21F
WINDOM         SUNNY     34   7  32 SE3       30.20F
WORTHINGTON    MOSUNNY   30   7  37 S5        30.20F WCI  25
$$

IAZ001>003-012>014-020>022-031-032-NEZ013-014-SDZ071-271900-
NORTHWEST IOWA

CITY           SKY/WX    TMP DP  RH WIND       PRES   REMARKS
DENISON        MOSUNNY   34  10  37 VRB3      30.21F
ESTHERVILLE    MOSUNNY   30  11  45 CALM      30.21F
SIOUX CITY     MOSUNNY   35  11  36 VRB5      30.24F
6HR MIN TEMP:  18; 6HR MAX TEMP:  35;

SPENCER        SUNNY     34  10  37 VRB6      30.22F WCI  29
6HR MIN TEMP:  15; 6HR MAX TEMP:  34;

$$

ABBREVIATIONS USED IN REMARKS
   TC - TEMPERATURE IN CELSIUS
  WCI - WIND CHILL INDEX
   HX - HEAT INDEX
  VSB - VISIBILITY



USA.gov is the U.S. government's official web portal to all federal, state and local government web resources and services.